TimeCST,TemperatureF,Dew PointF,Humidity,Sea Level PressureIn,VisibilityMPH,Wind Direction,Wind SpeedMPH,Gust SpeedMPH,PrecipitationIn,Events,Conditions,WindDirDegrees,DateUTC
12:55 AM,48.0,45.0,89,30.10,10.0,Calm,Calm,-,N/A,,Clear,0,2012-11-07 06:55:00
1:55 AM,48.0,45.0,89,30.11,10.0,Calm,Calm,-,N/A,,Clear,0,2012-11-07 07:55:00
2:55 AM,46.9,44.1,90,30.10,10.0,Calm,Calm,-,N/A,,Clear,0,2012-11-07 08:55:00
3:55 AM,46.9,44.1,90,30.11,10.0,Calm,Calm,-,N/A,,Clear,0,2012-11-07 09:55:00
4:55 AM,46.0,43.0,89,30.12,10.0,Calm,Calm,-,N/A,,Clear,0,2012-11-07 10:55:00
5:55 AM,46.9,44.1,90,30.12,10.0,NNW,4.6,-,N/A,,Clear,340,2012-11-07 11:55:00
6:55 AM,46.9,44.1,90,30.14,10.0,NNW,4.6,-,N/A,,Clear,340,2012-11-07 12:55:00
7:55 AM,53.1,46.9,80,30.15,10.0,NNW,4.6,-,N/A,,Clear,340,2012-11-07 13:55:00
8:55 AM,59.0,45.0,60,30.16,10.0,Calm,Calm,-,N/A,,Clear,0,2012-11-07 14:55:00
9:55 AM,66.0,39.9,38,30.15,10.0,North,6.9,-,N/A,,Clear,350,2012-11-07 15:55:00
10:55 AM,70.0,36.0,29,30.14,10.0,NNW,9.2,-,N/A,,Clear,340,2012-11-07 16:55:00
11:55 AM,72.0,30.9,22,30.11,10.0,NNW,15.0,23.0,N/A,,Clear,330,2012-11-07 17:55:00
12:55 PM,72.0,28.9,20,30.08,10.0,North,13.8,21.9,N/A,,Clear,350,2012-11-07 18:55:00
1:55 PM,73.0,28.9,20,30.07,10.0,NW,13.8,-,N/A,,Clear,320,2012-11-07 19:55:00
2:55 PM,73.0,30.0,20,30.07,10.0,North,15.0,-,N/A,,Clear,350,2012-11-07 20:55:00
3:55 PM,72.0,28.9,20,30.08,10.0,NNW,13.8,-,N/A,,Clear,340,2012-11-07 21:55:00
4:55 PM,68.0,36.0,31,30.09,10.0,WNW,8.1,-,N/A,,Clear,300,2012-11-07 22:55:00
5:55 PM,63.0,37.9,40,30.10,10.0,NW,3.5,-,N/A,,Clear,320,2012-11-07 23:55:00
6:55 PM,55.0,42.1,62,30.12,10.0,Calm,Calm,-,N/A,,Clear,0,2012-11-08 00:55:00
7:55 PM,53.1,41.0,64,30.13,10.0,Calm,Calm,-,N/A,,Clear,0,2012-11-08 01:55:00
8:55 PM,51.1,41.0,68,30.14,10.0,Calm,Calm,-,N/A,,Clear,0,2012-11-08 02:55:00
9:55 PM,48.9,42.1,77,30.16,10.0,Calm,Calm,-,N/A,,Clear,0,2012-11-08 03:55:00
10:55 PM,46.9,39.0,74,30.16,10.0,Calm,Calm,-,N/A,,Clear,0,2012-11-08 04:55:00
11:55 PM,46.0,39.9,79,30.16,10.0,Calm,Calm,-,N/A,,Clear,0,2012-11-08 05:55:00